Lid_Strength_Index
1 2 2 2 3 2 2 1 2 3 3 4 4 4 5 5 6 6 5 6 6 7
2 2 3 4 3 4 4 5 5 5 6 6 7 7 7 7 8 8 8 8 9 10
4 3 3 4 6 6 7 7 7 7 8 9 9 9 8 9 10 10 10 11 11 11
5 5 5 6 7 8 9 10 9 9 10 10 11 10 10 11 11 12 12 12 12 12
7 6 6 8 9 9 11 11 11 11 12 12 11 11 12 12 12 13 13 13 13 13
8 7 8 10 11 11 11 12 13 12 12 12 12 13 13 13 14 14 13 14 14 14
10 9 10 11 11 12 13 13 13 12 13 13 13 14 14 14 14 14 14 14 14 14
12 11 12 12 13 14 13 14 13 13 14 14 14 14 14 14 14 14 15 15 14 13
12 13 13 13 14 14 14 13 13 14 14 14 14 12 13 14 14 15 15 15 15 14
13 14 13 14 14 14 14 14 15 15 14 14 13 12 12 13 15 15 15 15 15 15
13 14 14 14 14 15 15 15 15 15 15 14 13 12 12 14 15 15 15 15 15 14
13 14 15 15 15 16 16 16 16 16 15 14 14 12 13 14 15 15 15 14 14 14
14 14 15 15 16 17 16 17 16 17 16 16 14 12 13 14 14 15 15 15 14 14
15 15 15 16 17 17 17 17 17 17 17 16 15 14 12 12 15 15 15 15 15 15